Tracking 17138 objects as of 7-July-2015
HD Live streaming from Space Station

GONETS M 03

Track GONETS M 03 now!
10-day predictions
GONETS M 03 is classified as:


NORAD ID: 38734
Int'l Code: 2012-041B
Perigee: 1,486.5 km
Apogee: 1,516.8 km
Inclination: 82.5 °
Period: 115.9 minutes
Semi major axis: 7872 km
RCS: 1.8381 m2 (large)
Launch date: July 28, 2012
Source: Commonwealth of Independent States (former USSR) (CIS)

Gonets-M1 is a telecoms satellites.
Your satellite tracking list
Your tracking list is empty





NASA's NSSDC Master Catalog

Two Line Element Set (TLE):
1 38734U 12041B   15188.44309245  .00000024  00000-0  10000-3 0  9997
2 38734 082.4752 046.8397 0019270 127.8719 232.4111 12.42859318133460

Source of the keplerian elements: AFSPC

N2YO: 413